[Iaude] MPEC V52: 2016 VR1 [a=2.44,e=0.51,i=0.7,H=23.0]

mpec at si.edu mpec at si.edu
Mon Nov 7 06:57:33 EST 2016


M.P.E.C. 2016-V52                                Issued 2016 Nov. 7, 11:53 UT
 
     The Minor Planet Electronic Circulars contain information on unusual
         minor planets and routine data on comets.  They are published
    on behalf of Division F of the International Astronomical Union by the
          Minor Planet Center, Smithsonian Astrophysical Observatory,
                          Cambridge, MA 02138, U.S.A.

             Prepared using the Tamkin Foundation Computer Network

                              MPC at CFA.HARVARD.EDU
            URL http://www.minorplanetcenter.net/    ISSN 1523-6714


                                   2016 VR1
 
Observations:
     K16V01R* C2016 11 05.24713 03 37 41.13 +15 52 48.1          21.3 VqEV052G96
     K16V01R  C2016 11 05.25161 03 37 41.66 +15 52 50.9          20.9 VqEV052G96
     K16V01R  C2016 11 05.25589 03 37 42.22 +15 52 53.0          21.1 VqEV052G96
     K16V01R  C2016 11 05.26191 03 37 43.06 +15 52 57.6          20.5 VqEV052G96
     K16V01R  C2016 11 05.39368 03 38 00.48 +15 54 24.0          20.9 VqEV052I52
     K16V01R  C2016 11 05.39936 03 38 01.27 +15 54 28.1          20.1 VqEV052I52
     K16V01R  C2016 11 05.40185 03 38 01.60 +15 54 29.1          20.2 VqEV052I52
     K16V01R  C2016 11 05.40433 03 38 01.94 +15 54 30.8          20.6 VqEV052I52
     K16V01R KC2016 11 05.98119 03 39 28.63 +16 00 35.4                qEV052J95
     K16V01R KC2016 11 05.98968 03 39 29.82 +16 00 40.2          20.4 RqEV052J95
     K16V01R  C2016 11 06.21943 03 40 04.70 +16 03 22.2          20.4 VqEV052G96
     K16V01R  C2016 11 06.22325 03 40 05.23 +16 03 23.7          20.3 VqEV052G96
     K16V01R  C2016 11 06.22673 03 40 05.71 +16 03 27.3          20.2 VqEV052G96
     K16V01R  C2016 11 06.23036 03 40 06.15 +16 03 29.2          19.8 VqEV052G96
     K16V01R  C2016 11 06.27649 03 40 12.31 +16 04 01.4          20.1 VqEV052G96
     K16V01R  C2016 11 06.28228 03 40 13.06 +16 04 05.0          20.5 VqEV052G96
     K16V01R  C2016 11 06.28518 03 40 13.47 +16 04 06.9          20.3 VqEV052G96
     K16V01R  C2016 11 07.31261 03 42 42.81 +16 15 13.8          20.4 VqEV052G96
     K16V01R  C2016 11 07.31307 03 42 42.83 +16 15 14.7          20.3 VqEV052G96
     K16V01R  C2016 11 07.31400 03 42 43.00 +16 15 14.7          21.6 VqEV052G96
     K16V01R  C2016 11 07.31496 03 42 43.08 +16 15 15.9          20.6 VqEV052G96
     K16V01R  C2016 11 07.31747 03 42 43.44 +16 15 17.0          20.9 VqEV052G96
     K16V01R  C2016 11 07.31793 03 42 43.52 +16 15 17.6          20.4 VqEV052G96
     K16V01R  C2016 11 07.32270 03 42 44.14 +16 15 20.5          20.2 VqEV052G96
     K16V01R  C2016 11 07.32643 03 42 44.56 +16 15 22.8          20.5 VqEV052G96
 
Observer details:
G96 Mt. Lemmon Survey.  Observers A. R. Gibbs, R. A. Kowalski.  Measurers
    E. J. Christensen, D. C. Fuls, A. R. Gibbs, A. D. Grauer, J. A. Johnson,
    R. A. Kowalski, S. M. Larson, G. J. Leonard, R. G. Matheny, R. L. Seaman,
    F. C. Shelly.  1.5-m reflector + 10K CCD.
I52 Steward Observatory, Mt. Lemmon Station.  Observer R. G. Matheny.
    Measurers E. J. Christensen, D. C. Fuls, A. R. Gibbs, A. D. Grauer,
    J. A. Johnson, R. A. Kowalski, S. M. Larson, G. J. Leonard, R. G. Matheny,
    R. L. Seaman, F. C. Shelly.  1.0-m reflector + CCD.
J95 Great Shefford.  Observer P. Birtwhistle.  0.40-m f/6.0 Schmidt-Cassegrain
    + CCD.
 
Orbital elements:
2016 VR1                                                 Earth MOID = 0.1948 AU
Epoch 2016 July 31.0 TT = JDT 2457600.5                 MPC
M 334.23434              (2000.0)            P               Q
n   0.25910506     Peri.  309.28137     +0.67909313     -0.73394415
a   2.4367938      Node    97.94098     +0.67733311     +0.61991766
e   0.5132236      Incl.    0.72836     +0.28293530     +0.27753932
P   3.80           H   23.0           G   0.15           U   8
Residuals in seconds of arc
161105 G96  0.4+  0.9+    161105 J95  0.5+  0.9-    161107 G96  0.5-  0.5+
161105 G96  0.6-  0.6+    161106 G96  0.6-  0.5+    161107 G96  0.2+  0.1-
161105 G96  0.8-  0.2-    161106 G96  0.3-  0.6-    161107 G96  0.4-  0.4+
161105 G96  0.3-  0.2+    161106 G96  0.1-  0.5+    161107 G96  0.1+  0.1-
161105 I52  0.2-  0.0     161106 G96  0.8-  0.1-    161107 G96  0.4+  0.2+
161105 I52  0.3+  0.5+    161106 G96  0.0   0.7+    161107 G96  0.5+  0.0
161105 I52  0.3+  0.1-    161106 G96  0.2-  0.4+    161107 G96  0.4-  0.1-
161105 I52  0.4+  0.1+    161106 G96  0.2+  0.3+
161105 J95  0.0   0.0     161107 G96  0.0   0.1-

Ephemeris:
2016 VR1                 a,e,i = 2.44, 0.51, 1                   q = 1.1862
Date    TT    R. A. (2000) Decl.     Delta      r     Elong.  Phase     V
2016 10 08    02 25 38.0 +10 43 57   0.2514  1.2345   157.1    18.4    21.4
...
2016 10 23    03 03 39.8 +13 25 22   0.2125  1.1989   162.1    14.8    20.9
...
2016 10 31    03 24 26.5 +14 54 59   0.2023  1.1891   164.8    12.7    20.7
...
2016 11 06    03 39 30.7 +16 01 13   0.1993  1.1863   167.0    10.9    20.5
2016 11 07    03 41 57.0 +16 12 03   0.1992  1.1862   167.4    10.5    20.5
2016 11 08    03 44 21.7 +16 22 49   0.1992  1.1862   167.8    10.2    20.5
...
2016 11 14    03 58 12.5 +17 25 28   0.2016  1.1885   170.3     8.1    20.5
...
2016 11 22    04 14 36.5 +18 42 07   0.2107  1.1975   174.2     4.8    20.4
...
2016 12 07    04 38 42.0 +20 39 44   0.2472  1.2318   175.7     3.4    20.8

A. U. Tomatic                (C) Copyright 2016 MPC           M.P.E.C. 2016-V52




More information about the Iaude mailing list